Location: Newark
(48.5178°N, 4.2361°E)
Time: 05:50:43
(UTC+00:00)

ISS - Pass Details

Date: 30 January 2021
Orbit: 417 x 422 km, 51.6° (Epoch: 08 March)

Event Time Altitude Azimuth Distance (km) Brightness Sun altitude
Rises 17:49:36 0° 285° (WNW) 2,374 1.3 -11.9°
Reaches altitude 10° 17:51:45 10° 291° (WNW) 1,510 0.0 -12.2°
Maximum altitude 17:55:04 52° 9° (N) 533 -3.4 -12.8°
Enters shadow 17:56:50 24° 76° (ENE) 923 -2.7 -13.0°
